Location: Dortmund
(51.5019°N, 7.6520°E)
Time: 09:47:06
(UTC+01:00)

N. Korean satellite - Visible Passes

Search period start: 18 February 2018 00:00
Search period end: 28 February 2018 00:00
Orbit: 459 x 514 km, 97.2° (Epoch: 17 February)

Date Brightness Start Highest point End Pass type
(mag) Time Alt. Az. Time Alt. Az. Time Alt. Az.
18 Feb 10.6 05:58:23 10° ENE 05:59:08 10° E 05:59:52 10° E visible
19 Feb 10.0 19:22:05 10° SW 19:24:13 15° W 19:26:22 10° NW visible
20 Feb 8.9 06:42:16 10° NNE 06:45:32 30° E 06:48:51 10° SSE visible
20 Feb 9.0 18:57:18 10° SSW 19:00:16 27° W 19:03:18 10° NW visible
21 Feb 10.0 06:19:04 10° NE 06:21:39 18° E 06:24:14 10° SE visible
21 Feb 7.6 18:33:03 10° S 18:36:24 49° W 18:39:50 10° NNW visible
22 Feb 10.7 05:57:00 10° ENE 05:57:39 10° E 05:58:20 10° E visible
23 Feb 9.9 19:20:29 10° SW 19:22:42 16° W 19:24:57 10° NW visible
24 Feb 9.0 06:40:46 10° NNE 06:44:04 30° E 06:47:22 10° SSE visible
24 Feb 9.0 18:55:43 10° SSW 18:58:45 28° W 19:01:50 10° NW visible
25 Feb 10.0 06:17:34 10° NE 06:20:08 18° E 06:22:43 10° SE visible
25 Feb 7.6 18:31:29 10° S 18:34:52 51° W 18:38:21 10° NNW visible
26 Feb 10.8 05:55:36 10° ENE 05:56:08 10° E 05:56:40 10° E visible
27 Feb 9.9 19:18:48 10° SW 19:21:08 17° W 19:23:29 10° NW visible
